User: anonymous   Login
Location: Unspecified
(0.0000°N, 0.0000°E)
Time: 00:02:33
(UTC+00:00)
Language:

STARLINK-36471 - Orbit

View from above orbital plane
View from above orbital plane
View from above satellite
View from above satellite

Ground track
Ground track

The orbit is defined by the following mean orbital elements,

1 67324U          26145.60193654 +.00000000 +00000-0 +50482-3 0 00009
2 67324  42.9977 250.7321 0001881 265.8808  94.1829 15.27576904    06
Epoch (UTC): 25 May 2026 14:26:47
Eccentricity: 0.0001881
inclination: 42.9977°
perigee height: 482 km
apogee height: 484 km
right ascension of ascending node: 250.7321°
argument of perigee: 265.8808°
revolutions per day: 15.27576904
mean anomaly at epoch: 94.1829°

The dashed part of the orbit path shows where the satellite is in the earth's shadow,  

DLR